When you browse on this site, cookies collect data to enhance your experience and personalize the content and advertising you see.
Visit our Privacy Policy to learn more. By continuing to use the site, you agree to this use of cookies and data.
  • In Germany
  • List of Countries
  • For 7 days
  • Water Temperature
  • Weather Map
  • Weather Widgets
  • user-avatar
    Login

    Hourly Weather Babruysk

    Today, 31 May, Sunday

    Time Temperature Precipitation Wind Pressure Humidity
    00:00 +13°C° 0.1 mm 3 mps 739 mmHg 96%
    01:00 +12°C° 0.1 mm 3 mps 740 mmHg 97%
    02:00 +12°C° 0 mm 3 mps 741 mmHg 98%
    03:00 +13°C° 0.5 mm 2 mps 741 mmHg 98%
    04:00 +13°C° 0.5 mm 2 mps 741 mmHg 98%
    05:00 +13°C° 0.5 mm 2 mps 741 mmHg 98%
    06:00 +12°C° 0.5 mm 3 mps 741 mmHg 95%
    07:00 +13°C° 0.5 mm 3 mps 742 mmHg 93%
    08:00 +14°C° 0 mm 3 mps 742 mmHg 90%
    09:00 +14°C° 0.5 mm 4 mps 742 mmHg 90%
    10:00 +14°C° 0.5 mm 5 mps 743 mmHg 90%
    11:00 +14°C° 0.5 mm 6 mps 743 mmHg 91%
    12:00 +14°C° 0.5 mm 7 mps 743 mmHg 89%
    13:00 +14°C° 0.5 mm 7 mps 744 mmHg 88%
    14:00 +12°C° 0 mm 7 mps 744 mmHg 89%
    15:00 +13°C° 0.1 mm 6 mps 744 mmHg 85%
    16:00 +14°C° 0.1 mm 5 mps 744 mmHg 82%
    17:00 +14°C° 0.1 mm 4 mps 744 mmHg 79%
    18:00 +14°C° 0.2 mm 4 mps 745 mmHg 81%
    19:00 +13°C° 0.2 mm 4 mps 745 mmHg 83%
    20:00 +12°C° 0.2 mm 3 mps 746 mmHg 85%
    21:00 +11°C° 0.1 mm 4 mps 746 mmHg 86%
    22:00 +10°C° 0.1 mm 4 mps 746 mmHg 88%
    23:00 +10°C° 0.1 mm 4 mps 746 mmHg 89%

    Tomorrow, 1 June, Monday

    Time Temperature Precipitation Wind Pressure Humidity
    00:00 +8°C° 0 mm 4 mps 746 mmHg 90%
    01:00 +7°C° 0 mm 4 mps 746 mmHg 90%
    02:00 +6°C° 0 mm 4 mps 747 mmHg 91%
    03:00 +6°C° 0 mm 5 mps 746 mmHg 89%
    04:00 +5°C° 0 mm 5 mps 746 mmHg 88%
    05:00 +5°C° 0 mm 5 mps 746 mmHg 86%
    06:00 +6°C° 0 mm 5 mps 746 mmHg 81%
    07:00 +7°C° 0 mm 6 mps 747 mmHg 75%
    08:00 +8°C° 0 mm 6 mps 747 mmHg 70%
    09:00 +9°C° 0.4 mm 7 mps 747 mmHg 70%
    10:00 +10°C° 0.4 mm 7 mps 746 mmHg 70%
    11:00 +10°C° 0.4 mm 7 mps 746 mmHg 70%
    12:00 +10°C° 0.6 mm 8 mps 746 mmHg 72%
    13:00 +10°C° 0.6 mm 8 mps 746 mmHg 74%
    14:00 +10°C° 0.6 mm 8 mps 746 mmHg 76%
    15:00 +9°C° 0.6 mm 7 mps 746 mmHg 80%
    16:00 +8°C° 0.6 mm 6 mps 745 mmHg 84%
    17:00 +7°C° 0.6 mm 5 mps 745 mmHg 89%
    18:00 +7°C° 0.3 mm 6 mps 745 mmHg 90%
    19:00 +7°C° 0.3 mm 6 mps 745 mmHg 92%
    20:00 +7°C° 0.3 mm 6 mps 744 mmHg 93%
    21:00 +6°C° 1.3 mm 7 mps 744 mmHg 94%
    22:00 +6°C° 1.3 mm 7 mps 743 mmHg 94%
    23:00 +6°C° 1.3 mm 7 mps 742 mmHg 95%

    Day after tomorrow, 2 June, Tuesday

    Time Temperature Precipitation Wind Pressure Humidity
    00:00 +6°C° 1.4 mm 7 mps 741 mmHg 95%
    01:00 +8°C° 1.4 mm 7 mps 741 mmHg 95%
    02:00 +8°C° 1.4 mm 7 mps 740 mmHg 95%
    03:00 +8°C° 1.3 mm 7 mps 739 mmHg 95%
    04:00 +7°C° 1.3 mm 8 mps 739 mmHg 95%
    05:00 +7°C° 1.3 mm 8 mps 738 mmHg 94%
    06:00 +7°C° 1.9 mm 8 mps 738 mmHg 95%
    07:00 +7°C° 1.9 mm 8 mps 738 mmHg 95%
    08:00 +7°C° 1.9 mm 8 mps 738 mmHg 95%
    09:00 +9°C° 1.2 mm 7 mps 738 mmHg 94%
    10:00 +9°C° 1.2 mm 6 mps 738 mmHg 92%
    11:00 +10°C° 1.2 mm 5 mps 739 mmHg 91%
    12:00 +11°C° 0.4 mm 6 mps 739 mmHg 85%
    13:00 +13°C° 0.4 mm 6 mps 739 mmHg 79%
    14:00 +14°C° 0.4 mm 6 mps 739 mmHg 74%
    15:00 +14°C° 0.5 mm 6 mps 739 mmHg 75%
    16:00 +13°C° 0.5 mm 5 mps 739 mmHg 76%
    17:00 +13°C° 0.5 mm 5 mps 739 mmHg 78%
    18:00 +12°C° 0.2 mm 4 mps 739 mmHg 82%
    19:00 +11°C° 0.2 mm 4 mps 740 mmHg 87%
    20:00 +9°C° 0.2 mm 3 mps 740 mmHg 92%
    21:00 +9°C° 0 mm 3 mps 740 mmHg 93%
    22:00 +8°C° 0 mm 3 mps 740 mmHg 94%
    23:00 +8°C° 0 mm 3 mps 740 mmHg 96%

    3 June, Wednesday

    Time Temperature Precipitation Wind Pressure Humidity
    00:00 +8°C° 0.1 mm 3 mps 740 mmHg 96%
    01:00 +8°C° 0.1 mm 3 mps 740 mmHg 96%
    02:00 +7°C° 0.1 mm 4 mps 740 mmHg 96%
    03:00 +7°C° 0.5 mm 4 mps 740 mmHg 96%
    04:00 +7°C° 0.5 mm 4 mps 740 mmHg 95%
    05:00 +7°C° 0.5 mm 5 mps 740 mmHg 95%
    06:00 +7°C° 0.4 mm 5 mps 740 mmHg 94%
    07:00 +8°C° 0.4 mm 5 mps 740 mmHg 94%
    08:00 +8°C° 0.4 mm 5 mps 740 mmHg 93%
    09:00 +9°C° 0.4 mm 5 mps 740 mmHg 91%
    10:00 +9°C° 0.4 mm 5 mps 740 mmHg 89%
    11:00 +10°C° 0.4 mm 5 mps 740 mmHg 87%
    12:00 +12°C° 0.6 mm 5 mps 739 mmHg 84%
    13:00 +13°C° 0.6 mm 5 mps 739 mmHg 81%
    14:00 +14°C° 0.6 mm 5 mps 739 mmHg 78%
    15:00 +14°C° 0.7 mm 5 mps 739 mmHg 80%
    16:00 +14°C° 0.7 mm 5 mps 739 mmHg 81%
    17:00 +14°C° 0.7 mm 5 mps 739 mmHg 83%
    18:00 +12°C° 0.2 mm 4 mps 739 mmHg 86%
    19:00 +11°C° 0.2 mm 3 mps 739 mmHg 90%
    20:00 +10°C° 0.2 mm 3 mps 739 mmHg 93%
    21:00 +9°C° 0 mm 2 mps 739 mmHg 94%
    22:00 +9°C° 0 mm 2 mps 739 mmHg 95%
    23:00 +8°C° 0 mm 2 mps 739 mmHg 95%

    4 June, Thursday

    Time Temperature Precipitation Wind Pressure Humidity
    00:00 +7°C° 0 mm 2 mps 739 mmHg 96%
    01:00 +7°C° 0 mm 2 mps 739 mmHg 96%
    02:00 +7°C° 0 mm 2 mps 739 mmHg 97%
    03:00 +7°C° 0 mm 2 mps 739 mmHg 97%
    04:00 +7°C° 0 mm 2 mps 739 mmHg 97%
    05:00 +7°C° 0 mm 2 mps 739 mmHg 98%
    06:00 +9°C° 0 mm 2 mps 740 mmHg 95%
    07:00 +10°C° 0 mm 3 mps 740 mmHg 91%
    08:00 +12°C° 0 mm 3 mps 740 mmHg 88%
    09:00 +13°C° 0.5 mm 3 mps 740 mmHg 85%
    10:00 +13°C° 0.5 mm 4 mps 739 mmHg 82%
    11:00 +14°C° 0.5 mm 4 mps 739 mmHg 79%
    12:00 +15°C° 0.6 mm 4 mps 739 mmHg 78%
    13:00 +15°C° 0.6 mm 5 mps 739 mmHg 77%
    14:00 +15°C° 0.6 mm 5 mps 739 mmHg 76%
    15:00 +15°C° 0.5 mm 4 mps 739 mmHg 78%
    16:00 +15°C° 0.5 mm 4 mps 739 mmHg 80%
    17:00 +15°C° 0.5 mm 4 mps 739 mmHg 83%
    18:00 +14°C° 0.5 mm 4 mps 739 mmHg 85%
    19:00 +13°C° 0.5 mm 3 mps 739 mmHg 88%
    20:00 +12°C° 0.5 mm 3 mps 738 mmHg 90%
    21:00 +11°C° 0.1 mm 3 mps 739 mmHg 92%
    22:00 +11°C° 0.1 mm 3 mps 739 mmHg 94%
    23:00 +10°C° 0.1 mm 3 mps 739 mmHg 95%

    5 June, Friday

    Time Temperature Precipitation Wind Pressure Humidity
    00:00 +10°C° 0 mm 3 mps 739 mmHg 96%
    01:00 +9°C° 0 mm 3 mps 739 mmHg 96%
    02:00 +9°C° 0 mm 2 mps 739 mmHg 96%
    03:00 +9°C° 0 mm 3 mps 738 mmHg 96%
    04:00 +10°C° 0 mm 3 mps 738 mmHg 96%
    05:00 +10°C° 0 mm 3 mps 738 mmHg 96%
    06:00 +11°C° 0.1 mm 3 mps 738 mmHg 96%
    07:00 +12°C° 0.1 mm 4 mps 738 mmHg 95%
    08:00 +13°C° 0.1 mm 4 mps 738 mmHg 95%
    09:00 +13°C° 0.6 mm 4 mps 738 mmHg 95%
    10:00 +13°C° 0.6 mm 4 mps 738 mmHg 95%
    11:00 +14°C° 0.6 mm 5 mps 737 mmHg 95%
    12:00 +14°C° 3.6 mm 5 mps 737 mmHg 96%
    13:00 +14°C° 3.6 mm 5 mps 737 mmHg 96%
    14:00 +15°C° 3.6 mm 5 mps 737 mmHg 97%
    15:00 +15°C° 0.3 mm 5 mps 737 mmHg 94%
    16:00 +16°C° 0.3 mm 5 mps 738 mmHg 91%
    17:00 +17°C° 0.3 mm 5 mps 738 mmHg 88%
    18:00 +16°C° 0.1 mm 5 mps 739 mmHg 89%
    19:00 +15°C° 0.1 mm 4 mps 739 mmHg 90%
    20:00 +15°C° 0.1 mm 4 mps 740 mmHg 91%
    21:00 +13°C° 0 mm 3 mps 740 mmHg 91%
    22:00 +12°C° 0 mm 3 mps 741 mmHg 91%
    23:00 +10°C° 0 mm 3 mps 742 mmHg 91%
    Show more